Time,TemperatureF,DewpointF,PressureIn,WindDirection,WindDirectionDegrees,WindSpeedMPH,WindSpeedGustMPH,Humidity,HourlyPrecipIn,Conditions,Clouds,dailyrainin,SolarRadiationWatts/m^2,SoftwareType,DateUTC
2013-04-24 00:02:00,25.0,1.0,-100.00,North,3,0.0,0.0,35,0.00,,,0.00,0.000000,,2013-04-24 07:02:00,
2013-04-24 00:32:00,24.0,2.0,-100.00,North,359,0.0,0.0,38,0.00,,,0.00,0.000000,,2013-04-24 07:32:00,
2013-04-24 00:42:00,24.0,2.0,-100.00,North,359,0.0,0.0,38,0.00,,,0.00,0.000000,,2013-04-24 07:42:00,
2013-04-24 00:52:00,24.0,2.0,-100.00,North,359,0.0,0.0,38,0.00,,,0.00,0.000000,,2013-04-24 07:52:00,
2013-04-24 01:01:00,24.0,2.0,-100.00,North,359,0.0,0.0,38,0.00,,,0.00,0.000000,,2013-04-24 08:01:00,
2013-04-24 01:33:00,22.0,1.0,-100.00,NNE,25,0.0,0.0,39,0.00,,,0.00,0.000000,,2013-04-24 08:33:00,
2013-04-24 01:42:00,22.0,1.0,-100.00,NNE,25,0.0,0.0,39,0.00,,,0.00,0.000000,,2013-04-24 08:42:00,
2013-04-24 01:52:00,22.0,1.0,-100.00,NNE,25,0.0,0.0,39,0.00,,,0.00,0.000000,,2013-04-24 08:52:00,
2013-04-24 02:01:00,22.0,1.0,-100.00,NNE,25,0.0,0.0,39,0.00,,,0.00,0.000000,,2013-04-24 09:01:00,
2013-04-24 02:33:00,21.0,1.0,-100.00,NW,321,0.0,0.0,41,0.00,,,0.00,0.000000,,2013-04-24 09:33:00,
2013-04-24 02:42:00,21.0,1.0,-100.00,NW,321,0.0,0.0,41,0.00,,,0.00,0.000000,,2013-04-24 09:42:00,
2013-04-24 02:53:00,21.0,1.0,-100.00,NW,321,0.0,0.0,41,0.00,,,0.00,0.000000,,2013-04-24 09:53:00,
2013-04-24 03:02:00,21.0,1.0,-100.00,NW,321,0.0,0.0,41,0.00,,,0.00,0.000000,,2013-04-24 10:02:00,
2013-04-24 03:33:00,21.0,1.0,-100.00,NE,39,0.0,0.0,40,0.00,,,0.00,0.000000,,2013-04-24 10:33:00,
2013-04-24 03:42:00,21.0,1.0,-100.00,NE,39,0.0,0.0,40,0.00,,,0.00,0.000000,,2013-04-24 10:42:00,
2013-04-24 03:53:00,21.0,1.0,-100.00,NE,39,0.0,0.0,40,0.00,,,0.00,0.000000,,2013-04-24 10:53:00,
2013-04-24 04:02:00,21.0,1.0,-100.00,NE,39,0.0,0.0,40,0.00,,,0.00,0.000000,,2013-04-24 11:02:00,
2013-04-24 04:32:00,20.0,1.0,-100.00,WNW,297,0.0,0.0,42,0.00,,,0.00,0.000000,,2013-04-24 11:32:00,
2013-04-24 04:42:00,20.0,1.0,-100.00,WNW,297,0.0,0.0,42,0.00,,,0.00,0.000000,,2013-04-24 11:42:00,
2013-04-24 04:52:00,20.0,1.0,-100.00,WNW,297,0.0,0.0,42,0.00,,,0.00,0.000000,,2013-04-24 11:52:00,
2013-04-24 05:01:00,20.0,1.0,-100.00,WNW,297,0.0,0.0,42,0.00,,,0.00,0.000000,,2013-04-24 12:01:00,
2013-04-24 05:32:00,21.0,2.0,-100.00,NE,56,0.0,0.0,42,0.00,,,-99.99,0.000000,,2013-04-24 12:32:00,
2013-04-24 05:42:00,21.0,2.0,-100.00,NE,56,0.0,0.0,42,0.00,,,-99.99,0.000000,,2013-04-24 12:42:00,
2013-04-24 05:52:00,21.0,2.0,-100.00,NE,56,0.0,0.0,42,0.00,,,-99.99,0.000000,,2013-04-24 12:52:00,
2013-04-24 06:01:00,21.0,2.0,-100.00,NE,56,0.0,0.0,42,0.00,,,-99.99,0.000000,,2013-04-24 13:01:00,
2013-04-24 08:33:00,52.0,9.0,-100.00,SW,216,6.0,10.0,17,-99.99,,,0.00,388.000000,,2013-04-24 15:33:00,
2013-04-24 08:43:00,52.0,9.0,-100.00,SW,216,6.0,10.0,17,-99.99,,,0.00,388.000000,,2013-04-24 15:43:00,
2013-04-24 08:53:00,52.0,9.0,-100.00,SW,216,6.0,10.0,17,-99.99,,,0.00,388.000000,,2013-04-24 15:53:00,
2013-04-24 09:03:00,52.0,9.0,-100.00,SW,216,6.0,10.0,17,-99.99,,,0.00,388.000000,,2013-04-24 16:03:00,
2013-04-24 10:32:00,59.0,14.0,-100.00,SW,216,11.0,20.0,17,-99.99,,,0.00,753.000000,,2013-04-24 17:32:00,
2013-04-24 10:42:00,59.0,14.0,-100.00,SW,216,11.0,20.0,17,-99.99,,,0.00,753.000000,,2013-04-24 17:42:00,
2013-04-24 10:52:00,59.0,14.0,-100.00,SW,216,11.0,20.0,17,-99.99,,,0.00,753.000000,,2013-04-24 17:52:00,
2013-04-24 11:02:00,59.0,14.0,-100.00,SW,216,11.0,20.0,17,-99.99,,,0.00,753.000000,,2013-04-24 18:02:00,
2013-04-24 11:33:00,61.0,16.0,-100.00,SSW,197,11.0,19.0,17,0.00,,,0.00,889.000000,,2013-04-24 18:33:00,
2013-04-24 11:43:00,61.0,16.0,-100.00,SSW,197,11.0,19.0,17,0.00,,,0.00,889.000000,,2013-04-24 18:43:00,
2013-04-24 11:52:00,61.0,16.0,-100.00,SSW,197,11.0,19.0,17,0.00,,,0.00,889.000000,,2013-04-24 18:52:00,
2013-04-24 12:01:00,61.0,16.0,-100.00,SSW,197,11.0,19.0,17,0.00,,,0.00,889.000000,,2013-04-24 19:01:00,
2013-04-24 12:32:00,63.0,16.0,-100.00,South,185,12.0,21.0,16,0.00,,,0.00,942.000000,,2013-04-24 19:32:00,
2013-04-24 12:42:00,63.0,16.0,-100.00,South,185,12.0,21.0,16,0.00,,,0.00,942.000000,,2013-04-24 19:42:00,
2013-04-24 12:52:00,63.0,16.0,-100.00,South,185,12.0,21.0,16,0.00,,,0.00,942.000000,,2013-04-24 19:52:00,
2013-04-24 13:01:00,63.0,16.0,-100.00,South,185,12.0,21.0,16,0.00,,,0.00,942.000000,,2013-04-24 20:01:00,
2013-04-24 13:32:00,64.0,17.0,-100.00,SW,232,7.0,24.0,16,0.00,,,0.00,964.000000,,2013-04-24 20:32:00,
2013-04-24 13:42:00,64.0,17.0,-100.00,SW,232,7.0,24.0,16,0.00,,,0.00,964.000000,,2013-04-24 20:42:00,
2013-04-24 13:52:00,64.0,17.0,-100.00,SW,232,7.0,24.0,16,0.00,,,0.00,964.000000,,2013-04-24 20:52:00,
2013-04-24 14:02:00,64.0,17.0,-100.00,SW,232,7.0,24.0,16,0.00,,,0.00,964.000000,,2013-04-24 21:02:00,
2013-04-24 14:33:00,64.0,17.0,-100.00,SW,218,9.0,22.0,16,0.00,,,0.00,855.000000,,2013-04-24 21:33:00,
2013-04-24 14:42:00,64.0,17.0,-100.00,SW,218,9.0,22.0,16,0.00,,,0.00,855.000000,,2013-04-24 21:42:00,
2013-04-24 14:52:00,64.0,17.0,-100.00,SW,218,9.0,22.0,16,0.00,,,0.00,855.000000,,2013-04-24 21:52:00,
2013-04-24 15:02:00,64.0,17.0,-100.00,SW,218,9.0,22.0,16,0.00,,,0.00,855.000000,,2013-04-24 22:02:00,
2013-04-24 15:33:00,64.0,17.0,-100.00,SSW,211,7.0,20.0,16,0.00,,,0.00,661.000000,,2013-04-24 22:33:00,
2013-04-24 15:42:00,64.0,17.0,-100.00,SSW,211,7.0,20.0,16,0.00,,,0.00,661.000000,,2013-04-24 22:42:00,
2013-04-24 15:52:00,64.0,17.0,-100.00,SSW,211,7.0,20.0,16,0.00,,,0.00,661.000000,,2013-04-24 22:52:00,
2013-04-24 16:02:00,64.0,17.0,-100.00,SSW,211,7.0,20.0,16,0.00,,,0.00,661.000000,,2013-04-24 23:02:00,
2013-04-24 16:32:00,63.0,18.0,-100.00,SSW,209,10.0,17.0,17,0.00,,,0.00,399.000000,,2013-04-24 23:32:00,
2013-04-24 16:42:00,63.0,18.0,-100.00,SSW,209,10.0,17.0,17,0.00,,,0.00,399.000000,,2013-04-24 23:42:00,
2013-04-24 16:52:00,63.0,18.0,-100.00,SSW,209,10.0,17.0,17,0.00,,,0.00,399.000000,,2013-04-24 23:52:00,
2013-04-24 17:01:00,63.0,18.0,-100.00,SSW,209,10.0,17.0,17,0.00,,,0.00,399.000000,,2013-04-25 00:01:00,
2013-04-24 17:32:00,61.0,17.0,-100.00,SSW,201,8.0,15.0,18,0.00,,,-99.99,274.000000,,2013-04-25 00:32:00,
2013-04-24 17:42:00,61.0,17.0,-100.00,SSW,201,8.0,15.0,18,0.00,,,-99.99,274.000000,,2013-04-25 00:42:00,
2013-04-24 17:52:00,61.0,17.0,-100.00,SSW,201,8.0,15.0,18,0.00,,,-99.99,274.000000,,2013-04-25 00:52:00,
2013-04-24 18:01:00,61.0,17.0,-100.00,SSW,201,8.0,15.0,18,0.00,,,-99.99,274.000000,,2013-04-25 01:01:00,
2013-04-24 18:32:00,61.0,16.0,-100.00,South,187,8.0,16.0,17,0.00,,,0.00,230.000000,,2013-04-25 01:32:00,
2013-04-24 18:42:00,61.0,16.0,-100.00,South,187,8.0,16.0,17,0.00,,,0.00,230.000000,,2013-04-25 01:42:00,
2013-04-24 18:52:00,61.0,16.0,-100.00,South,187,8.0,16.0,17,0.00,,,0.00,230.000000,,2013-04-25 01:52:00,
2013-04-24 19:01:00,61.0,16.0,-100.00,South,187,8.0,16.0,17,0.00,,,0.00,230.000000,,2013-04-25 02:01:00,
2013-04-24 19:32:00,56.0,14.0,-100.00,South,182,3.0,12.0,19,0.00,,,0.00,40.000000,,2013-04-25 02:32:00,
2013-04-24 19:42:00,56.0,14.0,-100.00,South,182,3.0,12.0,19,0.00,,,0.00,40.000000,,2013-04-25 02:42:00,
2013-04-24 19:51:00,56.0,14.0,-100.00,South,182,3.0,12.0,19,0.00,,,0.00,40.000000,,2013-04-25 02:51:00,
2013-04-24 20:02:00,56.0,14.0,-100.00,South,182,3.0,12.0,19,0.00,,,0.00,40.000000,,2013-04-25 03:02:00,
2013-04-24 20:33:00,48.0,16.0,-100.00,ENE,75,0.0,0.0,28,0.00,,,0.00,1.000000,,2013-04-25 03:33:00,
2013-04-24 20:43:00,48.0,16.0,-100.00,ENE,75,0.0,0.0,28,0.00,,,0.00,1.000000,,2013-04-25 03:43:00,
2013-04-24 20:52:00,48.0,16.0,-100.00,ENE,75,0.0,0.0,28,0.00,,,0.00,1.000000,,2013-04-25 03:52:00,
2013-04-24 21:03:00,48.0,16.0,-100.00,ENE,75,0.0,0.0,28,0.00,,,0.00,1.000000,,2013-04-25 04:03:00,
2013-04-24 21:33:00,45.0,18.0,-100.00,WSW,253,0.0,0.0,34,0.00,,,0.00,0.000000,,2013-04-25 04:33:00,
2013-04-24 21:43:00,45.0,18.0,-100.00,WSW,253,0.0,0.0,34,0.00,,,0.00,0.000000,,2013-04-25 04:43:00,
2013-04-24 21:52:00,45.0,18.0,-100.00,WSW,253,0.0,0.0,34,0.00,,,0.00,0.000000,,2013-04-25 04:52:00,
2013-04-24 22:02:00,45.0,18.0,-100.00,WSW,253,0.0,0.0,34,0.00,,,0.00,0.000000,,2013-04-25 05:02:00,
2013-04-24 22:32:00,42.0,19.0,-100.00,NNW,327,0.0,0.0,40,0.00,,,0.00,0.000000,,2013-04-25 05:32:00,
2013-04-24 22:42:00,42.0,19.0,-100.00,NNW,327,0.0,0.0,40,0.00,,,0.00,0.000000,,2013-04-25 05:42:00,
2013-04-24 22:52:00,42.0,19.0,-100.00,NNW,327,0.0,0.0,40,0.00,,,0.00,0.000000,,2013-04-25 05:52:00,
2013-04-24 23:01:00,42.0,19.0,-100.00,NNW,327,0.0,0.0,40,0.00,,,0.00,0.000000,,2013-04-25 06:01:00,